Location: Lecco
(45.8566°N, 9.3977°E)
Time: 12:23:47
(UTC+02:00)

Altair - Visible Passes

Search period start: 07 August 2020 00:00
Search period end: 17 August 2020 00:00
Orbit: 1501 x 1682 km, 47.2° (Epoch: 06 August)

Date Brightness Start Highest point End Pass type
(mag) Time Alt. Az. Time Alt. Az. Time Alt. Az.
07 Aug 9.1 02:20:19 13° SE 02:21:44 13° SE 02:25:41 10° E visible
07 Aug 8.0 04:18:20 20° SSW 04:24:38 46° SE 04:33:17 10° ENE visible
08 Aug 9.2 01:56:27 12° SE 01:56:44 12° ESE 01:59:35 10° ESE visible
08 Aug 8.0 03:54:28 25° SSW 03:59:32 43° SE 04:08:06 10° ENE visible
09 Aug 8.1 03:30:33 29° S 03:34:27 40° SE 03:42:54 10° ENE visible
09 Aug 7.6 05:28:57 10° WSW 05:38:29 83° SSE 05:47:45 10° ENE visible
10 Aug 8.1 03:06:37 32° S 03:09:22 38° SE 03:17:41 10° ENE visible
10 Aug 7.5 05:04:38 13° WSW 05:13:20 80° SSE 05:22:35 10° ENE visible
11 Aug 8.1 02:42:40 33° SSE 02:44:18 35° SE 02:52:28 10° ENE visible
11 Aug 7.5 04:40:39 19° WSW 04:48:10 78° SSE 04:57:26 10° ENE visible
12 Aug 8.2 02:18:39 32° SE 02:19:14 32° SE 02:27:13 10° ENE visible
12 Aug 7.5 04:16:39 24° SW 04:23:00 75° SSE 04:32:16 10° ENE visible
13 Aug 8.3 01:54:38 30° SE 01:54:38 30° SE 02:01:56 10° ENE visible
13 Aug 7.5 03:52:37 31° SW 03:57:51 72° SSE 04:07:07 10° ENE visible
14 Aug 8.5 01:30:34 27° ESE 01:30:34 27° ESE 01:36:39 10° E visible
14 Aug 7.5 03:28:34 38° SW 03:32:43 69° SSE 03:41:57 10° ENE visible
14 Aug 7.6 05:27:51 10° W 05:37:27 83° N 05:46:44 10° E visible
15 Aug 8.7 01:06:29 23° ESE 01:06:29 23° ESE 01:11:19 10° E visible
15 Aug 7.5 03:04:28 46° SSW 03:07:34 65° SSE 03:16:48 10° ENE visible
15 Aug 7.6 05:02:37 10° W 05:12:15 84° N 05:21:34 10° E visible
16 Aug 8.8 00:42:21 19° ESE 00:42:21 19° ESE 00:45:58 10° E visible
16 Aug 7.5 02:40:21 52° SSW 02:42:25 62° SSE 02:51:38 10° ENE visible
16 Aug 7.5 04:38:20 14° W 04:47:03 85° N 04:56:23 10° E visible
